User: anonymous
Location: Nebraska Star Party
(42.6000°N, 100.8833°W)
Time: 04:40:33
(UTC-05:00)
Language:

Iridium 37 - Orbit

View from above orbital plane
View from above orbital plane
View from above satellite
View from above satellite

Ground track
Ground track

The orbit data is extracted from the following two-line orbital elements,

1 24968U 97056D   14260.41990452  .00000428  00000-0  14563-3 0  9551
2 24968 086.4006 018.4193 0002274 113.2837 246.8598 14.34218619888668
Epoch (UTC): 17 September 2014 10:04:39
Eccentricity: 0.0002274
inclination: 86.4006°
perigee height: 776 km
apogee height: 779 km
right ascension of ascending node: 18.4193°
argument of perigee: 113.2837°
revolutions per day: 14.34218619
mean anomaly at epoch: 246.8598°
orbit number at epoch: 88866

The dashed part of the orbit path shows where the satellite is in the earth's shadow,  

DLR